Weather History for KMGE - January, 2014

Change the Weather History Date:

Sunday, January 12, 2014

  Actual Average Record
Temperature  
Mean Temperature 46 °F -  
Max Temperature 59 °F 49 °F 73 °F (2013)
Min Temperature 34 °F 31 °F 20 °F (2011)
Degree Days  
Heating Degree Days 18    
Moisture  
Dew Point 35 °F    
Average Humidity 71    
Maximum Humidity 97    
Minimum Humidity 36    
Precipitation  
Precipitation 0.00 in - - ()
Sea Level Pressure  
Sea Level Pressure 30.12 in    
Wind  
Wind Speed 6 mph (West)    
Max Wind Speed 12 mph    
Max Gust Speed -    
Visibility 10 miles    
Events      
Averages and records for this station are not official NWS values.
T = Trace of Precipitation, MM = Missing Value Source: NWS Daily Summary

Daily Weather History Graph

Daily Weather History Graph

Search for Another Location

Airport or City:

Trip Planner

Search our weather history database for the weather conditions in past years. The results will help you decide how hot, cold, wet, or windy it might be!

Date:

Astronomy

Jan. 12, 2014 Rise Set
Actual Time 7:43 AM EST 5:49 PM EST
Civil Twilight 7:16 AM EST 6:16 PM EST
Nautical Twilight 6:45 AM EST 6:47 PM EST
Astronomical Twilight 6:15 AM EST 7:17 PM EST
Moon 3:15 PM EST (1/12) 4:42 AM EST (1/12)
Length of Visible Light 11h 00m
Length of Day
10h 05m
Waxing Gibbous, 89% of the Moon is Illuminated
Jan 12
Waxing Gibbous
Jan 15
Full
Jan 24
Last Quarter
Jan 30
New
Feb 6
First Quarter

Hourly Weather History & Observations

Time (EST) Temp. Windchill Dew Point Humidity Pressure Visibility Wind Dir Wind Speed Gust Speed Precip Events Conditions
12:58 AM 44.2 °F 38.4 °F 36.9 °F 75% 29.96 in 10.0 mi West 11.5 mph - N/A   Clear
1:58 AM 42.4 °F 37.5 °F 36.7 °F 80% 30.01 in 10.0 mi West 8.1 mph - N/A   Clear
2:58 AM 40.5 °F 35.1 °F 36.0 °F 84% 30.01 in 10.0 mi WNW 8.1 mph - N/A   Clear
3:58 AM 38.5 °F 32.7 °F 35.6 °F 89% 30.03 in 10.0 mi West 8.1 mph - N/A   Clear
4:58 AM 37.0 °F 32.4 °F 34.7 °F 91% 30.04 in 10.0 mi West 5.8 mph - N/A   Clear
5:58 AM 35.1 °F 32.2 °F 33.1 °F 92% 30.04 in 10.0 mi WSW 3.5 mph - N/A   Clear
6:58 AM 34.2 °F - 32.7 °F 94% 30.08 in 10.0 mi West 2.3 mph - N/A   Clear
7:58 AM 34.9 °F - 34.2 °F 97% 30.12 in 10.0 mi West 1.2 mph - N/A   Clear
8:58 AM 39.2 °F 35.9 °F 37.9 °F 95% 30.16 in 10.0 mi WNW 4.6 mph - N/A   Clear
9:58 AM 45.5 °F 41.3 °F 39.6 °F 80% 30.18 in 10.0 mi West 8.1 mph - N/A   Clear
10:58 AM 49.1 °F - 39.7 °F 70% 30.19 in 10.0 mi West 5.8 mph - N/A   Clear
11:58 AM 53.1 °F - 39.9 °F 61% 30.18 in 10.0 mi West 4.6 mph - N/A   Clear
12:58 PM 55.2 °F - 37.0 °F 50% 30.15 in 10.0 mi Variable 4.6 mph - N/A   Clear
1:58 PM 57.7 °F - 34.9 °F 42% 30.13 in 10.0 mi Variable 4.6 mph - N/A   Clear
2:58 PM 59.2 °F - 32.2 °F 36% 30.12 in 10.0 mi West 6.9 mph - N/A   Clear
3:58 PM 59.0 °F - 31.8 °F 36% 30.13 in 10.0 mi SW 5.8 mph - N/A   Clear
4:58 PM 58.3 °F - 31.6 °F 36% 30.13 in 10.0 mi WSW 4.6 mph - N/A   Clear
5:58 PM 55.2 °F - 32.9 °F 43% 30.14 in 10.0 mi South 2.3 mph - N/A   Clear
6:58 PM 48.9 °F - 35.4 °F 60% 30.16 in 10.0 mi Calm Calm - N/A   Clear
7:58 PM 44.4 °F - 35.4 °F 71% 30.17 in 10.0 mi Calm Calm - N/A   Clear
8:58 PM 43.2 °F - 35.6 °F 75% 30.17 in 10.0 mi Calm Calm - N/A   Clear
9:56 PM 41.7 °F - 35.2 °F 78% 30.17 in 10.0 mi Calm Calm - N/A   Clear
10:57 PM 39.6 °F - 35.2 °F 85% 30.18 in 10.0 mi Calm Calm - N/A   Clear
11:58 PM 37.4 °F - 34.7 °F 90% 30.15 in 10.0 mi NNW 2.3 mph - N/A   Clear